Tokyo, Japan

3:22 PM JST on September 22, 2017 (GMT +0900)
Tokyo (Haneda) International

Weather History for RJTT - September, 2017

Change the Weather History Date:

Thursday, September 14, 2017

  Actual Average Record
Temperature  
Mean Temperature 80 °F -  
Max Temperature 84 °F 73 °F 91 °F (1999)
Min Temperature 75 °F 64 °F 60 °F (1996)
Cooling Degree Days 14    
Growing Degree Days 30 (Base 50)    
Moisture  
Dew Point 70 °F    
Average Humidity 75    
Maximum Humidity 89    
Minimum Humidity 58    
Precipitation  
Precipitation 0.00 in - - ()
Sea Level Pressure  
Sea Level Pressure 29.94 in    
Wind  
Wind Speed 9 mph ()    
Max Wind Speed 20 mph    
Max Gust Speed -    
Visibility 6.2 miles    
Events Rain    
Averages and records for this station are not official NWS values.
T = Trace of Precipitation, MM = Missing Value Source: Averaged Metar Reports

Daily Weather History Graph

Daily Weather History Graph

Search for Another Location

Airport or City:

Trip Planner

Search our weather history database for the weather conditions in past years. The results will help you decide how hot, cold, wet, or windy it might be!

Date:

Astronomy

Sep. 14, 2017 Rise Set
Actual Time 5:22 AM JST 5:49 PM JST
Civil Twilight 4:56 AM JST 6:15 PM JST
Nautical Twilight 4:26 AM JST 6:45 PM JST
Astronomical Twilight 3:56 AM JST 7:16 PM JST
Moon 11:49 PM JST (9/14) 1:19 PM JST (9/14)
Length of Visible Light 13h 18m
Length of Day
12h 27m
Last Quarter, 40% of the Moon is Illuminated
Sep 14
Last Quarter
Sep 20
New
Sep 28
First Quarter
Oct 6
Full
Oct 12
Last Quarter

Hourly Weather History & Observations

Time (JST) Temp. Heat Index Dew Point Humidity Pressure Visibility Wind Dir Wind Speed Gust Speed Precip Events Conditions
12:00 AM 77.0 °F - 73.4 °F 89% 29.95 in 6.2 mi NE 5.8 mph - N/A   Mostly Cloudy
12:30 AM 77.0 °F - 71.6 °F 83% 29.95 in 6.2 mi ENE 5.8 mph - N/A   Mostly Cloudy
1:00 AM 77.0 °F - 73.4 °F 89% 29.95 in 6.2 mi NE 6.9 mph - N/A   Mostly Cloudy
1:30 AM 77.0 °F - 71.6 °F 83% 29.95 in 6.2 mi NNE 6.9 mph - N/A   Mostly Cloudy
2:00 AM 77.0 °F - 71.6 °F 83% 29.95 in 6.2 mi NNE 8.1 mph - N/A   Partly Cloudy
2:30 AM 75.2 °F - 71.6 °F 89% 29.92 in 6.2 mi NNE 10.4 mph - N/A   Mostly Cloudy
3:00 AM 77.0 °F - 71.6 °F 83% 29.95 in 6.2 mi NNE 10.4 mph - N/A   Mostly Cloudy
3:30 AM 75.2 °F - 71.6 °F 89% 29.95 in 6.2 mi North 11.5 mph - N/A   Mostly Cloudy
4:00 AM 75.2 °F - 69.8 °F 83% 29.95 in 6.2 mi North 10.4 mph - N/A   Mostly Cloudy
4:30 AM 75.2 °F - 69.8 °F 83% 29.95 in 6.2 mi North 11.5 mph - N/A   Mostly Cloudy
5:00 AM 75.2 °F - 69.8 °F 83% 29.95 in 6.2 mi North 11.5 mph - N/A   Mostly Cloudy
5:30 AM 75.2 °F - 69.8 °F 83% 29.95 in 6.2 mi North 9.2 mph - N/A   Scattered Clouds
6:00 AM 75.2 °F - 69.8 °F 83% 29.95 in 6.2 mi North 9.2 mph - N/A   Mostly Cloudy
6:30 AM 75.2 °F - 69.8 °F 83% 29.98 in 6.2 mi North 9.2 mph - N/A   Mostly Cloudy
6:42 AM 75.2 °F - 68.0 °F 78% 29.98 in 6.2 mi North 9.2 mph - N/A   Mostly Cloudy
7:00 AM 75.2 °F - 68.0 °F 78% 29.98 in 6.2 mi North 9.2 mph - N/A   Mostly Cloudy
7:30 AM 77.0 °F - 68.0 °F 74% 29.98 in 6.2 mi North 11.5 mph - N/A   Partly Cloudy
8:00 AM 78.8 °F - 68.0 °F 69% 29.98 in 6.2 mi North 10.4 mph - N/A   Partly Cloudy
8:30 AM 78.8 °F - 68.0 °F 69% 29.98 in 6.2 mi NNW 9.2 mph - N/A   Partly Cloudy
9:00 AM 78.8 °F - 66.2 °F 65% 29.98 in 6.2 mi NNW 11.5 mph - N/A   Mostly Cloudy
9:30 AM 80.6 °F 82.7 °F 66.2 °F 61% 29.98 in 6.2 mi NNW 9.2 mph - N/A   Partly Cloudy
10:00 AM 82.4 °F 84.6 °F 66.2 °F 58% 29.98 in 6.2 mi North 6.9 mph - N/A   Partly Cloudy
10:30 AM 82.4 °F 84.6 °F 66.2 °F 58% 29.95 in 6.2 mi North 5.8 mph - N/A   Partly Cloudy
11:00 AM 82.4 °F 85.4 °F 68.0 °F 62% 29.95 in 6.2 mi North 5.8 mph - N/A   Partly Cloudy
11:30 AM 82.4 °F 86.3 °F 69.8 °F 66% 29.95 in 6.2 mi NNE 6.9 mph - N/A   Partly Cloudy
12:00 PM 82.4 °F 86.3 °F 69.8 °F 66% 29.92 in 6.2 mi ENE 5.8 mph - N/A   Partly Cloudy
12:30 PM 84.2 °F 89.6 °F 71.6 °F 66% 29.92 in 6.2 mi ESE 5.8 mph - N/A   Partly Cloudy
1:00 PM 84.2 °F 89.6 °F 71.6 °F 66% 29.89 in 6.2 mi ESE 11.5 mph - N/A   Partly Cloudy
1:30 PM 84.2 °F 89.6 °F 71.6 °F 66% 29.89 in 6.2 mi ESE 9.2 mph - N/A   Partly Cloudy
2:00 PM 84.2 °F 89.6 °F 71.6 °F 66% 29.89 in 6.2 mi ESE 8.1 mph - N/A   Partly Cloudy
2:30 PM 84.2 °F 89.6 °F 71.6 °F 66% 29.89 in 6.2 mi SE 9.2 mph - N/A   Partly Cloudy
3:00 PM 84.2 °F 89.6 °F 71.6 °F 66% 29.89 in 6.2 mi SE 5.8 mph - N/A   Partly Cloudy
3:30 PM 84.2 °F 88.4 °F 69.8 °F 62% 29.89 in 6.2 mi SE 5.8 mph - N/A   Partly Cloudy
4:00 PM 82.4 °F 86.3 °F 69.8 °F 66% 29.89 in 6.2 mi SE 5.8 mph - N/A   Partly Cloudy
4:30 PM 82.4 °F 87.2 °F 71.6 °F 70% 29.89 in 6.2 mi SE 8.1 mph - N/A   Scattered Clouds
5:00 PM 80.6 °F 85.4 °F 73.4 °F 79% 29.89 in 6.2 mi East 15.0 mph - N/A   Mostly Cloudy
5:30 PM 80.6 °F 85.4 °F 73.4 °F 79% 29.89 in 6.2 mi East 12.7 mph - N/A   Mostly Cloudy
6:00 PM 78.8 °F - 73.4 °F 83% 29.92 in 6.2 mi SE 12.7 mph - N/A   Mostly Cloudy
6:30 PM 78.8 °F - 73.4 °F 83% 29.92 in 6.2 mi SE 16.1 mph - N/A   Mostly Cloudy
7:00 PM 77.0 °F - 73.4 °F 89% 29.95 in 6.2 mi SE 15.0 mph - N/A   Mostly Cloudy
7:30 PM 77.0 °F - 71.6 °F 83% 29.95 in 6.2 mi ESE 15.0 mph - N/A   Scattered Clouds
8:00 PM 77.0 °F - 69.8 °F 78% 29.95 in 6.2 mi East 17.3 mph - N/A   Mostly Cloudy
8:30 PM 77.0 °F - 68.0 °F 74% 29.95 in 6.2 mi East 16.1 mph - N/A   Mostly Cloudy
9:00 PM 77.0 °F - 69.8 °F 78% 29.95 in 6.2 mi East 17.3 mph - N/A   Mostly Cloudy
9:30 PM 77.0 °F - 69.8 °F 78% 29.95 in 6.2 mi East 17.3 mph - N/A   Mostly Cloudy
10:00 PM 77.0 °F - 68.0 °F 74% 29.95 in 6.2 mi ENE 17.3 mph - N/A   Mostly Cloudy
10:30 PM 75.2 °F - 68.0 °F 78% 29.95 in 6.2 mi ENE 19.6 mph - N/A   Mostly Cloudy
11:00 PM 75.2 °F - 64.4 °F 69% 29.98 in 6.2 mi NNE 16.1 mph - N/A Rain Light Rain Showers
11:30 PM 75.2 °F - 66.2 °F 73% 29.98 in 6.2 mi NE 15.0 mph - N/A   Mostly Cloudy